owner,sensor,date,latitude,longitude,vertical_datum,sea_water_temperature,qcFlag 
SCCF RECON,ioos:station:SCCF:53:1,2008-05-01T00:00:00Z,26.6493,-81.8810,2.11,26.23,2 
SCCF RECON,ioos:station:SCCF:53:1,2008-05-01T01:00:00Z,26.6493,-81.8810,2.11,26.26,2 
SCCF RECON,ioos:station:SCCF:53:1,2008-05-01T02:00:00Z,26.6493,-81.8810,2.11,26.0,2 
SCCF RECON,ioos:station:SCCF:53:1,2008-05-01T03:00:00Z,26.6493,-81.8810,2.11,25.83,2 
SCCF RECON,ioos:station:SCCF:53:1,2008-05-01T04:00:00Z,26.6493,-81.8810,2.11,25.37,2 
SCCF RECON,ioos:station:SCCF:53:1,2008-05-01T05:00:00Z,26.6493,-81.8810,2.11,25.2,2 
SCCF RECON,ioos:station:SCCF:53:1,2008-05-01T06:00:00Z,26.6493,-81.8810,2.11,25.22,2 
SCCF RECON,ioos:station:SCCF:53:1,2008-05-01T07:00:00Z,26.6493,-81.8810,2.11,25.04,2 
SCCF RECON,ioos:station:SCCF:53:1,2008-05-01T08:00:00Z,26.6493,-81.8810,2.11,24.94,2 
SCCF RECON,ioos:station:SCCF:53:1,2008-05-01T09:00:00Z,26.6493,-81.8810,2.11,24.86,2 
SCCF RECON,ioos:station:SCCF:53:1,2008-05-01T10:00:00Z,26.6493,-81.8810,2.11,24.8,2 
SCCF RECON,ioos:station:SCCF:53:1,2008-05-01T11:00:00Z,26.6493,-81.8810,2.11,24.7,2 
SCCF RECON,ioos:station:SCCF:53:1,2008-05-01T12:00:00Z,26.6493,-81.8810,2.11,24.7,2 
SCCF RECON,ioos:station:SCCF:53:1,2008-05-01T13:00:00Z,26.6493,-81.8810,2.11,24.65,2 
SCCF RECON,ioos:station:SCCF:53:1,2008-05-01T14:00:00Z,26.6493,-81.8810,2.11,24.62,2 
SCCF RECON,ioos:station:SCCF:53:1,2008-05-01T15:00:00Z,26.6493,-81.8810,2.11,24.62,2 
SCCF RECON,ioos:station:SCCF:53:1,2008-05-01T16:00:00Z,26.6493,-81.8810,2.11,24.9,2 
SCCF RECON,ioos:station:SCCF:53:1,2008-05-01T17:00:00Z,26.6493,-81.8810,2.11,25.13,2 
SCCF RECON,ioos:station:SCCF:53:1,2008-05-01T18:00:00Z,26.6493,-81.8810,2.11,25.25,2 
SCCF RECON,ioos:station:SCCF:53:1,2008-05-01T19:00:00Z,26.6493,-81.8810,2.11,25.58,2 
SCCF RECON,ioos:station:SCCF:53:1,2008-05-01T20:00:00Z,26.6493,-81.8810,2.11,25.76,2 
SCCF RECON,ioos:station:SCCF:53:1,2008-05-01T21:00:00Z,26.6493,-81.8810,2.11,26.03,2 
SCCF RECON,ioos:station:SCCF:53:1,2008-05-01T22:00:00Z,26.6493,-81.8810,2.11,25.98,2 
SCCF RECON,ioos:station:SCCF:53:1,2008-05-01T23:00:00Z,26.6493,-81.8810,2.11,25.82,2 
SCCF RECON,ioos:station:SCCF:53:1,2008-05-02T00:00:00Z,26.6493,-81.8810,2.11,25.76,2 
SCCF RECON,ioos:station:SCCF:53:1,2008-05-02T01:00:00Z,26.6493,-81.8810,2.11,25.69,2 
SCCF RECON,ioos:station:SCCF:53:1,2008-05-02T02:00:00Z,26.6493,-81.8810,2.11,25.68,2 
SCCF RECON,ioos:station:SCCF:53:1,2008-05-02T03:00:00Z,26.6493,-81.8810,2.11,25.46,2 
SCCF RECON,ioos:station:SCCF:53:1,2008-05-02T04:00:00Z,26.6493,-81.8810,2.11,25.41,2 
SCCF RECON,ioos:station:SCCF:53:1,2008-05-02T05:00:00Z,26.6493,-81.8810,2.11,25.32,2 
SCCF RECON,ioos:station:SCCF:53:1,2008-05-02T06:00:00Z,26.6493,-81.8810,2.11,25.29,2 
SCCF RECON,ioos:station:SCCF:53:1,2008-05-02T07:00:00Z,26.6493,-81.8810,2.11,25.24,2 
SCCF RECON,ioos:station:SCCF:53:1,2008-05-02T08:00:00Z,26.6493,-81.8810,2.11,25.14,2 
SCCF RECON,ioos:station:SCCF:53:1,2008-05-02T09:00:00Z,26.6493,-81.8810,2.11,24.91,2 
SCCF RECON,ioos:station:SCCF:53:1,2008-05-02T10:00:00Z,26.6493,-81.8810,2.11,25.01,2 
SCCF RECON,ioos:station:SCCF:53:1,2008-05-02T11:00:00Z,26.6493,-81.8810,2.11,25.01,2 
SCCF RECON,ioos:station:SCCF:53:1,2008-05-02T12:00:00Z,26.6493,-81.8810,2.11,24.85,2 
SCCF RECON,ioos:station:SCCF:53:1,2008-05-02T13:00:00Z,26.6493,-81.8810,2.11,24.71,2 
SCCF RECON,ioos:station:SCCF:53:1,2008-05-02T14:00:00Z,26.6493,-81.8810,2.11,24.64,2 
SCCF RECON,ioos:station:SCCF:53:1,2008-05-02T15:00:00Z,26.6493,-81.8810,2.11,24.79,2 
SCCF RECON,ioos:station:SCCF:53:1,2008-05-02T16:00:00Z,26.6493,-81.8810,2.11,24.76,2 
SCCF RECON,ioos:station:SCCF:53:1,2008-05-02T17:00:00Z,26.6493,-81.8810,2.11,25.0,2 
SCCF RECON,ioos:station:SCCF:53:1,2008-05-02T18:00:00Z,26.6493,-81.8810,2.11,25.23,2 
SCCF RECON,ioos:station:SCCF:53:1,2008-05-02T19:00:00Z,26.6493,-81.8810,2.11,25.56,2 
SCCF RECON,ioos:station:SCCF:53:1,2008-05-02T20:00:00Z,26.6493,-81.8810,2.11,25.65,2 
SCCF RECON,ioos:station:SCCF:53:1,2008-05-02T21:00:00Z,26.6493,-81.8810,2.11,25.65,2 
SCCF RECON,ioos:station:SCCF:53:1,2008-05-02T22:00:00Z,26.6493,-81.8810,2.11,25.57,2 
SCCF RECON,ioos:station:SCCF:53:1,2008-05-02T23:00:00Z,26.6493,-81.8810,2.11,25.59,2 
SCCF RECON,ioos:station:SCCF:53:1,2008-05-03T00:00:00Z,26.6493,-81.8810,2.11,25.61,2 
SCCF RECON,ioos:station:SCCF:53:1,2008-05-03T01:00:00Z,26.6493,-81.8810,2.11,25.63,2 
SCCF RECON,ioos:station:SCCF:53:1,2008-05-03T02:00:00Z,26.6493,-81.8810,2.11,25.69,2 
SCCF RECON,ioos:station:SCCF:53:1,2008-05-03T03:00:00Z,26.6493,-81.8810,2.11,25.43,2 
SCCF RECON,ioos:station:SCCF:53:1,2008-05-03T04:00:00Z,26.6493,-81.8810,2.11,25.56,2 
SCCF RECON,ioos:station:SCCF:53:1,2008-05-03T05:00:00Z,26.6493,-81.8810,2.11,25.39,2 
SCCF RECON,ioos:station:SCCF:53:1,2008-05-03T06:00:00Z,26.6493,-81.8810,2.11,25.4,2 
SCCF RECON,ioos:station:SCCF:53:1,2008-05-03T07:00:00Z,26.6493,-81.8810,2.11,25.31,2 
SCCF RECON,ioos:station:SCCF:53:1,2008-05-03T08:00:00Z,26.6493,-81.8810,2.11,25.3,2 
SCCF RECON,ioos:station:SCCF:53:1,2008-05-03T09:00:00Z,26.6493,-81.8810,2.11,25.33,2 
SCCF RECON,ioos:station:SCCF:53:1,2008-05-03T10:00:00Z,26.6493,-81.8810,2.11,25.22,2 
SCCF RECON,ioos:station:SCCF:53:1,2008-05-03T11:00:00Z,26.6493,-81.8810,2.11,25.26,2 
SCCF RECON,ioos:station:SCCF:53:1,2008-05-03T12:00:00Z,26.6493,-81.8810,2.11,25.32,2 
SCCF RECON,ioos:station:SCCF:53:1,2008-05-03T13:00:00Z,26.6493,-81.8810,2.11,25.31,2 
SCCF RECON,ioos:station:SCCF:53:1,2008-05-03T14:00:00Z,26.6493,-81.8810,2.11,25.28,2 
SCCF RECON,ioos:station:SCCF:53:1,2008-05-03T15:00:00Z,26.6493,-81.8810,2.11,24.99,2 
SCCF RECON,ioos:station:SCCF:53:1,2008-05-03T16:00:00Z,26.6493,-81.8810,2.11,25.29,2 
SCCF RECON,ioos:station:SCCF:53:1,2008-05-03T17:00:00Z,26.6493,-81.8810,2.11,25.27,2 
SCCF RECON,ioos:station:SCCF:53:1,2008-05-03T18:00:00Z,26.6493,-81.8810,2.11,25.57,2 
SCCF RECON,ioos:station:SCCF:53:1,2008-05-03T19:00:00Z,26.6493,-81.8810,2.11,25.92,2 
SCCF RECON,ioos:station:SCCF:53:1,2008-05-03T20:00:00Z,26.6493,-81.8810,2.11,26.0,2 
SCCF RECON,ioos:station:SCCF:53:1,2008-05-03T21:00:00Z,26.6493,-81.8810,2.11,26.35,2 
SCCF RECON,ioos:station:SCCF:53:1,2008-05-03T22:00:00Z,26.6493,-81.8810,2.11,26.28,2 
SCCF RECON,ioos:station:SCCF:53:1,2008-05-03T23:00:00Z,26.6493,-81.8810,2.11,26.22,2 
SCCF RECON,ioos:station:SCCF:53:1,2008-05-04T00:00:00Z,26.6493,-81.8810,2.11,26.33,2 
SCCF RECON,ioos:station:SCCF:53:1,2008-05-04T01:00:00Z,26.6493,-81.8810,2.11,26.36,2 
SCCF RECON,ioos:station:SCCF:53:1,2008-05-04T02:00:00Z,26.6493,-81.8810,2.11,26.45,2 
SCCF RECON,ioos:station:SCCF:53:1,2008-05-04T03:00:00Z,26.6493,-81.8810,2.11,26.39,2 
SCCF RECON,ioos:station:SCCF:53:1,2008-05-04T04:00:00Z,26.6493,-81.8810,2.11,26.21,2 
SCCF RECON,ioos:station:SCCF:53:1,2008-05-04T05:00:00Z,26.6493,-81.8810,2.11,26.19,2 
SCCF RECON,ioos:station:SCCF:53:1,2008-05-04T06:00:00Z,26.6493,-81.8810,2.11,26.24,2 
SCCF RECON,ioos:station:SCCF:53:1,2008-05-04T07:00:00Z,26.6493,-81.8810,2.11,26.25,2 
SCCF RECON,ioos:station:SCCF:53:1,2008-05-04T08:00:00Z,26.6493,-81.8810,2.11,26.1,2 
SCCF RECON,ioos:station:SCCF:53:1,2008-05-04T09:00:00Z,26.6493,-81.8810,2.11,25.62,2 
SCCF RECON,ioos:station:SCCF:53:1,2008-05-04T10:00:00Z,26.6493,-81.8810,2.11,25.64,2 
SCCF RECON,ioos:station:SCCF:53:1,2008-05-04T11:00:00Z,26.6493,-81.8810,2.11,25.83,2 
SCCF RECON,ioos:station:SCCF:53:1,2008-05-04T12:00:00Z,26.6493,-81.8810,2.11,25.84,2 
SCCF RECON,ioos:station:SCCF:53:1,2008-05-04T13:00:00Z,26.6493,-81.8810,2.11,25.9,2 
SCCF RECON,ioos:station:SCCF:53:1,2008-05-04T14:00:00Z,26.6493,-81.8810,2.11,25.95,2 
SCCF RECON,ioos:station:SCCF:53:1,2008-05-04T15:00:00Z,26.6493,-81.8810,2.11,25.88,2 
SCCF RECON,ioos:station:SCCF:53:1,2008-05-04T16:00:00Z,26.6493,-81.8810,2.11,25.96,2 
SCCF RECON,ioos:station:SCCF:53:1,2008-05-04T17:00:00Z,26.6493,-81.8810,2.11,26.22,2 
SCCF RECON,ioos:station:SCCF:53:1,2008-05-04T18:00:00Z,26.6493,-81.8810,2.11,26.44,2 
SCCF RECON,ioos:station:SCCF:53:1,2008-05-04T19:00:00Z,26.6493,-81.8810,2.11,26.62,2 
SCCF RECON,ioos:station:SCCF:53:1,2008-05-04T20:00:00Z,26.6493,-81.8810,2.11,26.55,2 
SCCF RECON,ioos:station:SCCF:53:1,2008-05-05T00:00:00Z,26.6493,-81.8810,2.11,27.5,2 
SCCF RECON,ioos:station:SCCF:53:1,2008-05-05T01:00:00Z,26.6493,-81.8810,2.11,27.2,2 
SCCF RECON,ioos:station:SCCF:53:1,2008-05-05T02:00:00Z,26.6493,-81.8810,2.11,27.23,2 
SCCF RECON,ioos:station:SCCF:53:1,2008-05-05T03:00:00Z,26.6493,-81.8810,2.11,27.27,2 
SCCF RECON,ioos:station:SCCF:53:1,2008-05-05T04:00:00Z,26.6493,-81.8810,2.11,27.19,2 
SCCF RECON,ioos:station:SCCF:53:1,2008-05-05T05:00:00Z,26.6493,-81.8810,2.11,27.18,2 
SCCF RECON,ioos:station:SCCF:53:1,2008-05-05T06:00:00Z,26.6493,-81.8810,2.11,27.04,2 
SCCF RECON,ioos:station:SCCF:53:1,2008-05-05T07:00:00Z,26.6493,-81.8810,2.11,26.92,2 
SCCF RECON,ioos:station:SCCF:53:1,2008-05-05T08:00:00Z,26.6493,-81.8810,2.11,26.66,2 
SCCF RECON,ioos:station:SCCF:53:1,2008-05-05T09:00:00Z,26.6493,-81.8810,2.11,26.75,2 
SCCF RECON,ioos:station:SCCF:53:1,2008-05-05T10:00:00Z,26.6493,-81.8810,2.11,26.57,2 
SCCF RECON,ioos:station:SCCF:53:1,2008-05-05T11:00:00Z,26.6493,-81.8810,2.11,26.61,2 
SCCF RECON,ioos:station:SCCF:53:1,2008-05-05T12:00:00Z,26.6493,-81.8810,2.11,26.34,2 
SCCF RECON,ioos:station:SCCF:53:1,2008-05-05T13:00:00Z,26.6493,-81.8810,2.11,26.49,2 
SCCF RECON,ioos:station:SCCF:53:1,2008-05-05T14:00:00Z,26.6493,-81.8810,2.11,26.64,2 
SCCF RECON,ioos:station:SCCF:53:1,2008-05-05T15:00:00Z,26.6493,-81.8810,2.11,26.73,2 
SCCF RECON,ioos:station:SCCF:53:1,2008-05-05T16:00:00Z,26.6493,-81.8810,2.11,26.65,2 
SCCF RECON,ioos:station:SCCF:53:1,2008-05-05T17:00:00Z,26.6493,-81.8810,2.11,26.87,2 
SCCF RECON,ioos:station:SCCF:53:1,2008-05-05T18:00:00Z,26.6493,-81.8810,2.11,27.04,2 
SCCF RECON,ioos:station:SCCF:53:1,2008-05-05T19:00:00Z,26.6493,-81.8810,2.11,27.13,2 
SCCF RECON,ioos:station:SCCF:53:1,2008-05-05T20:00:00Z,26.6493,-81.8810,2.11,27.86,2 
SCCF RECON,ioos:station:SCCF:53:1,2008-05-05T21:00:00Z,26.6493,-81.8810,2.11,27.3,2 
SCCF RECON,ioos:station:SCCF:53:1,2008-05-05T22:00:00Z,26.6493,-81.8810,2.11,27.74,2 
SCCF RECON,ioos:station:SCCF:53:1,2008-05-05T23:00:00Z,26.6493,-81.8810,2.11,28.35,2 
SCCF RECON,ioos:station:SCCF:53:1,2008-05-06T00:00:00Z,26.6493,-81.8810,2.11,28.08,2 
SCCF RECON,ioos:station:SCCF:53:1,2008-05-22T14:00:00Z,26.6493,-81.8810,2.11,28.14,2 
SCCF RECON,ioos:station:SCCF:53:1,2008-05-22T15:00:00Z,26.6493,-81.8810,2.11,28.18,2 
SCCF RECON,ioos:station:SCCF:53:1,2008-05-22T16:00:00Z,26.6493,-81.8810,2.11,28.16,2 
SCCF RECON,ioos:station:SCCF:53:1,2008-05-22T17:00:00Z,26.6493,-81.8810,2.11,28.14,2 
SCCF RECON,ioos:station:SCCF:53:1,2008-05-22T18:00:00Z,26.6493,-81.8810,2.11,28.78,2 
SCCF RECON,ioos:station:SCCF:53:1,2008-05-22T19:00:00Z,26.6493,-81.8810,2.11,29.11,2 
SCCF RECON,ioos:station:SCCF:53:1,2008-05-22T20:00:00Z,26.6493,-81.8810,2.11,29.16,2 
SCCF RECON,ioos:station:SCCF:53:1,2008-05-22T21:00:00Z,26.6493,-81.8810,2.11,29.19,2 
SCCF RECON,ioos:station:SCCF:53:1,2008-05-22T22:00:00Z,26.6493,-81.8810,2.11,29.22,2 
SCCF RECON,ioos:station:SCCF:53:1,2008-05-22T23:00:00Z,26.6493,-81.8810,2.11,29.22,2 
SCCF RECON,ioos:station:SCCF:53:1,2008-05-23T00:00:00Z,26.6493,-81.8810,2.11,29.23,2 
SCCF RECON,ioos:station:SCCF:53:1,2008-05-23T01:00:00Z,26.6493,-81.8810,2.11,29.19,2 
SCCF RECON,ioos:station:SCCF:53:1,2008-05-23T02:00:00Z,26.6493,-81.8810,2.11,29.08,2 
SCCF RECON,ioos:station:SCCF:53:1,2008-05-23T03:00:00Z,26.6493,-81.8810,2.11,29.01,2 
SCCF RECON,ioos:station:SCCF:53:1,2008-05-23T04:00:00Z,26.6493,-81.8810,2.11,28.9,2 
SCCF RECON,ioos:station:SCCF:53:1,2008-05-23T05:00:00Z,26.6493,-81.8810,2.11,28.8,2 
SCCF RECON,ioos:station:SCCF:53:1,2008-05-23T06:00:00Z,26.6493,-81.8810,2.11,28.72,2 
SCCF RECON,ioos:station:SCCF:53:1,2008-05-23T07:00:00Z,26.6493,-81.8810,2.11,28.67,2 
SCCF RECON,ioos:station:SCCF:53:1,2008-05-23T08:00:00Z,26.6493,-81.8810,2.11,28.6,2 
SCCF RECON,ioos:station:SCCF:53:1,2008-05-23T09:00:00Z,26.6493,-81.8810,2.11,28.67,2 
SCCF RECON,ioos:station:SCCF:53:1,2008-05-23T10:00:00Z,26.6493,-81.8810,2.11,28.77,2 
SCCF RECON,ioos:station:SCCF:53:1,2008-05-23T11:00:00Z,26.6493,-81.8810,2.11,28.87,2 
SCCF RECON,ioos:station:SCCF:53:1,2008-05-23T12:00:00Z,26.6493,-81.8810,2.11,28.85,2 
SCCF RECON,ioos:station:SCCF:53:1,2008-05-23T13:00:00Z,26.6493,-81.8810,2.11,28.75,2 
SCCF RECON,ioos:station:SCCF:53:1,2008-05-23T14:00:00Z,26.6493,-81.8810,2.11,28.55,2 
SCCF RECON,ioos:station:SCCF:53:1,2008-05-23T15:00:00Z,26.6493,-81.8810,2.11,28.35,2 
SCCF RECON,ioos:station:SCCF:53:1,2008-05-23T16:00:00Z,26.6493,-81.8810,2.11,28.43,2 
SCCF RECON,ioos:station:SCCF:53:1,2008-05-23T17:00:00Z,26.6493,-81.8810,2.11,28.69,2 
SCCF RECON,ioos:station:SCCF:53:1,2008-05-23T18:00:00Z,26.6493,-81.8810,2.11,29.22,2 
SCCF RECON,ioos:station:SCCF:53:1,2008-05-23T19:00:00Z,26.6493,-81.8810,2.11,29.85,2 
SCCF RECON,ioos:station:SCCF:53:1,2008-05-23T20:00:00Z,26.6493,-81.8810,2.11,29.68,2 
SCCF RECON,ioos:station:SCCF:53:1,2008-05-23T21:00:00Z,26.6493,-81.8810,2.11,29.6,2 
SCCF RECON,ioos:station:SCCF:53:1,2008-05-23T22:00:00Z,26.6493,-81.8810,2.11,30.0,2 
SCCF RECON,ioos:station:SCCF:53:1,2008-05-23T23:00:00Z,26.6493,-81.8810,2.11,30.01,2 
SCCF RECON,ioos:station:SCCF:53:1,2008-05-24T00:00:00Z,26.6493,-81.8810,2.11,30.03,2 
SCCF RECON,ioos:station:SCCF:53:1,2008-05-24T01:00:00Z,26.6493,-81.8810,2.11,30.02,2 
SCCF RECON,ioos:station:SCCF:53:1,2008-05-24T02:00:00Z,26.6493,-81.8810,2.11,29.92,2 
SCCF RECON,ioos:station:SCCF:53:1,2008-05-24T03:00:00Z,26.6493,-81.8810,2.11,29.65,2 
SCCF RECON,ioos:station:SCCF:53:1,2008-05-24T04:00:00Z,26.6493,-81.8810,2.11,29.44,2 
SCCF RECON,ioos:station:SCCF:53:1,2008-05-24T05:00:00Z,26.6493,-81.8810,2.11,29.42,2 
SCCF RECON,ioos:station:SCCF:53:1,2008-05-24T06:00:00Z,26.6493,-81.8810,2.11,29.37,2 
SCCF RECON,ioos:station:SCCF:53:1,2008-05-24T07:00:00Z,26.6493,-81.8810,2.11,29.15,2 
SCCF RECON,ioos:station:SCCF:53:1,2008-05-24T08:00:00Z,26.6493,-81.8810,2.11,29.22,2 
SCCF RECON,ioos:station:SCCF:53:1,2008-05-24T09:00:00Z,26.6493,-81.8810,2.11,29.31,2 
SCCF RECON,ioos:station:SCCF:53:1,2008-05-24T10:00:00Z,26.6493,-81.8810,2.11,29.49,2 
SCCF RECON,ioos:station:SCCF:53:1,2008-05-24T11:00:00Z,26.6493,-81.8810,2.11,29.5,2 
SCCF RECON,ioos:station:SCCF:53:1,2008-05-24T12:00:00Z,26.6493,-81.8810,2.11,29.47,2 
SCCF RECON,ioos:station:SCCF:53:1,2008-05-24T13:00:00Z,26.6493,-81.8810,2.11,29.29,2 
SCCF RECON,ioos:station:SCCF:53:1,2008-05-24T14:00:00Z,26.6493,-81.8810,2.11,29.28,2 
SCCF RECON,ioos:station:SCCF:53:1,2008-05-24T15:00:00Z,26.6493,-81.8810,2.11,29.26,2 
SCCF RECON,ioos:station:SCCF:53:1,2008-05-24T16:00:00Z,26.6493,-81.8810,2.11,29.3,2 
SCCF RECON,ioos:station:SCCF:53:1,2008-05-24T17:00:00Z,26.6493,-81.8810,2.11,29.3,2 
SCCF RECON,ioos:station:SCCF:53:1,2008-05-24T18:00:00Z,26.6493,-81.8810,2.11,29.6,2 
SCCF RECON,ioos:station:SCCF:53:1,2008-05-24T19:00:00Z,26.6493,-81.8810,2.11,30.12,2 
SCCF RECON,ioos:station:SCCF:53:1,2008-05-24T20:00:00Z,26.6493,-81.8810,2.11,30.19,2 
SCCF RECON,ioos:station:SCCF:53:1,2008-05-24T21:00:00Z,26.6493,-81.8810,2.11,30.38,2 
SCCF RECON,ioos:station:SCCF:53:1,2008-05-24T22:00:00Z,26.6493,-81.8810,2.11,30.42,2 
SCCF RECON,ioos:station:SCCF:53:1,2008-05-24T23:00:00Z,26.6493,-81.8810,2.11,30.4,2 
SCCF RECON,ioos:station:SCCF:53:1,2008-05-25T00:00:00Z,26.6493,-81.8810,2.11,30.34,2 
SCCF RECON,ioos:station:SCCF:53:1,2008-05-25T01:00:00Z,26.6493,-81.8810,2.11,30.24,2 
SCCF RECON,ioos:station:SCCF:53:1,2008-05-25T02:00:00Z,26.6493,-81.8810,2.11,30.09,2 
SCCF RECON,ioos:station:SCCF:53:1,2008-05-25T03:00:00Z,26.6493,-81.8810,2.11,30.05,2 
SCCF RECON,ioos:station:SCCF:53:1,2008-05-25T04:00:00Z,26.6493,-81.8810,2.11,29.77,2 
SCCF RECON,ioos:station:SCCF:53:1,2008-05-25T05:00:00Z,26.6493,-81.8810,2.11,29.64,2 
SCCF RECON,ioos:station:SCCF:53:1,2008-05-25T06:00:00Z,26.6493,-81.8810,2.11,29.51,2 
SCCF RECON,ioos:station:SCCF:53:1,2008-05-25T07:00:00Z,26.6493,-81.8810,2.11,29.47,2 
SCCF RECON,ioos:station:SCCF:53:1,2008-05-25T08:00:00Z,26.6493,-81.8810,2.11,29.42,2 
SCCF RECON,ioos:station:SCCF:53:1,2008-05-25T09:00:00Z,26.6493,-81.8810,2.11,29.1,2 
SCCF RECON,ioos:station:SCCF:53:1,2008-05-25T10:00:00Z,26.6493,-81.8810,2.11,29.59,2 
SCCF RECON,ioos:station:SCCF:53:1,2008-05-25T11:00:00Z,26.6493,-81.8810,2.11,29.57,2 
SCCF RECON,ioos:station:SCCF:53:1,2008-05-25T12:00:00Z,26.6493,-81.8810,2.11,29.63,2 
SCCF RECON,ioos:station:SCCF:53:1,2008-05-25T13:00:00Z,26.6493,-81.8810,2.11,29.47,2 
SCCF RECON,ioos:station:SCCF:53:1,2008-05-25T14:00:00Z,26.6493,-81.8810,2.11,29.52,2 
SCCF RECON,ioos:station:SCCF:53:1,2008-05-25T15:00:00Z,26.6493,-81.8810,2.11,29.54,2 
SCCF RECON,ioos:station:SCCF:53:1,2008-05-25T16:00:00Z,26.6493,-81.8810,2.11,29.52,2 
SCCF RECON,ioos:station:SCCF:53:1,2008-05-25T17:00:00Z,26.6493,-81.8810,2.11,29.55,2 
SCCF RECON,ioos:station:SCCF:53:1,2008-05-25T18:00:00Z,26.6493,-81.8810,2.11,29.67,2 
SCCF RECON,ioos:station:SCCF:53:1,2008-05-25T19:00:00Z,26.6493,-81.8810,2.11,29.93,2 
SCCF RECON,ioos:station:SCCF:53:1,2008-05-25T20:00:00Z,26.6493,-81.8810,2.11,30.1,2 
SCCF RECON,ioos:station:SCCF:53:1,2008-05-25T21:00:00Z,26.6493,-81.8810,2.11,30.32,2 
SCCF RECON,ioos:station:SCCF:53:1,2008-05-25T22:00:00Z,26.6493,-81.8810,2.11,30.13,2 
SCCF RECON,ioos:station:SCCF:53:1,2008-05-25T23:00:00Z,26.6493,-81.8810,2.11,30.1,2 
SCCF RECON,ioos:station:SCCF:53:1,2008-05-26T00:00:00Z,26.6493,-81.8810,2.11,30.14,2 
SCCF RECON,ioos:station:SCCF:53:1,2008-05-26T01:00:00Z,26.6493,-81.8810,2.11,29.85,2 
SCCF RECON,ioos:station:SCCF:53:1,2008-05-26T02:00:00Z,26.6493,-81.8810,2.11,29.75,2 
SCCF RECON,ioos:station:SCCF:53:1,2008-05-26T03:00:00Z,26.6493,-81.8810,2.11,29.61,2 
SCCF RECON,ioos:station:SCCF:53:1,2008-05-26T04:00:00Z,26.6493,-81.8810,2.11,29.5,2 
SCCF RECON,ioos:station:SCCF:53:1,2008-05-26T05:00:00Z,26.6493,-81.8810,2.11,29.32,2 
SCCF RECON,ioos:station:SCCF:53:1,2008-05-26T06:00:00Z,26.6493,-81.8810,2.11,29.19,2 
SCCF RECON,ioos:station:SCCF:53:1,2008-05-26T07:00:00Z,26.6493,-81.8810,2.11,28.92,2 
SCCF RECON,ioos:station:SCCF:53:1,2008-05-26T08:00:00Z,26.6493,-81.8810,2.11,28.68,2 
SCCF RECON,ioos:station:SCCF:53:1,2008-05-26T09:00:00Z,26.6493,-81.8810,2.11,28.37,2 
SCCF RECON,ioos:station:SCCF:53:1,2008-05-26T10:00:00Z,26.6493,-81.8810,2.11,28.62,2 
SCCF RECON,ioos:station:SCCF:53:1,2008-05-26T11:00:00Z,26.6493,-81.8810,2.11,28.46,2 
SCCF RECON,ioos:station:SCCF:53:1,2008-05-26T12:00:00Z,26.6493,-81.8810,2.11,28.4,2 
SCCF RECON,ioos:station:SCCF:53:1,2008-05-26T13:00:00Z,26.6493,-81.8810,2.11,28.32,2 
SCCF RECON,ioos:station:SCCF:53:1,2008-05-26T14:00:00Z,26.6493,-81.8810,2.11,28.3,2 
SCCF RECON,ioos:station:SCCF:53:1,2008-05-26T15:00:00Z,26.6493,-81.8810,2.11,28.4,2 
SCCF RECON,ioos:station:SCCF:53:1,2008-05-26T16:00:00Z,26.6493,-81.8810,2.11,28.45,2 
SCCF RECON,ioos:station:SCCF:53:1,2008-05-26T17:00:00Z,26.6493,-81.8810,2.11,28.54,2 
SCCF RECON,ioos:station:SCCF:53:1,2008-05-26T18:00:00Z,26.6493,-81.8810,2.11,28.66,2 
SCCF RECON,ioos:station:SCCF:53:1,2008-05-26T19:00:00Z,26.6493,-81.8810,2.11,28.74,2 
SCCF RECON,ioos:station:SCCF:53:1,2008-05-26T20:00:00Z,26.6493,-81.8810,2.11,28.88,2 
SCCF RECON,ioos:station:SCCF:53:1,2008-05-26T21:00:00Z,26.6493,-81.8810,2.11,28.91,2 
SCCF RECON,ioos:station:SCCF:53:1,2008-05-26T22:00:00Z,26.6493,-81.8810,2.11,28.87,2 
SCCF RECON,ioos:station:SCCF:53:1,2008-05-26T23:00:00Z,26.6493,-81.8810,2.11,28.79,2 
SCCF RECON,ioos:station:SCCF:53:1,2008-05-27T00:00:00Z,26.6493,-81.8810,2.11,28.67,2 
SCCF RECON,ioos:station:SCCF:53:1,2008-05-27T01:00:00Z,26.6493,-81.8810,2.11,28.49,2 
SCCF RECON,ioos:station:SCCF:53:1,2008-05-27T02:00:00Z,26.6493,-81.8810,2.11,28.33,2 
SCCF RECON,ioos:station:SCCF:53:1,2008-05-27T03:00:00Z,26.6493,-81.8810,2.11,28.22,2 
SCCF RECON,ioos:station:SCCF:53:1,2008-05-27T04:00:00Z,26.6493,-81.8810,2.11,27.94,2 
SCCF RECON,ioos:station:SCCF:53:1,2008-05-27T05:00:00Z,26.6493,-81.8810,2.11,27.84,2 
SCCF RECON,ioos:station:SCCF:53:1,2008-05-27T06:00:00Z,26.6493,-81.8810,2.11,27.68,2 
SCCF RECON,ioos:station:SCCF:53:1,2008-05-27T07:00:00Z,26.6493,-81.8810,2.11,27.63,2 
SCCF RECON,ioos:station:SCCF:53:1,2008-05-27T08:00:00Z,26.6493,-81.8810,2.11,27.4,2 
SCCF RECON,ioos:station:SCCF:53:1,2008-05-27T09:00:00Z,26.6493,-81.8810,2.11,27.27,2 
SCCF RECON,ioos:station:SCCF:53:1,2008-05-27T10:00:00Z,26.6493,-81.8810,2.11,27.16,2 
SCCF RECON,ioos:station:SCCF:53:1,2008-05-27T11:00:00Z,26.6493,-81.8810,2.11,27.08,2 
SCCF RECON,ioos:station:SCCF:53:1,2008-05-27T12:00:00Z,26.6493,-81.8810,2.11,26.78,2 
SCCF RECON,ioos:station:SCCF:53:1,2008-05-27T13:00:00Z,26.6493,-81.8810,2.11,26.46,2 
SCCF RECON,ioos:station:SCCF:53:1,2008-05-27T14:00:00Z,26.6493,-81.8810,2.11,26.56,2 
SCCF RECON,ioos:station:SCCF:53:1,2008-05-27T15:00:00Z,26.6493,-81.8810,2.11,26.66,2 
SCCF RECON,ioos:station:SCCF:53:1,2008-05-27T16:00:00Z,26.6493,-81.8810,2.11,26.88,2 
SCCF RECON,ioos:station:SCCF:53:1,2008-05-27T17:00:00Z,26.6493,-81.8810,2.11,27.08,2 
SCCF RECON,ioos:station:SCCF:53:1,2008-05-27T18:00:00Z,26.6493,-81.8810,2.11,27.33,2 
SCCF RECON,ioos:station:SCCF:53:1,2008-05-27T19:00:00Z,26.6493,-81.8810,2.11,27.45,2 
SCCF RECON,ioos:station:SCCF:53:1,2008-05-27T20:00:00Z,26.6493,-81.8810,2.11,27.58,2 
SCCF RECON,ioos:station:SCCF:53:1,2008-05-27T21:00:00Z,26.6493,-81.8810,2.11,27.78,2 
SCCF RECON,ioos:station:SCCF:53:1,2008-05-27T22:00:00Z,26.6493,-81.8810,2.11,27.86,2 
SCCF RECON,ioos:station:SCCF:53:1,2008-05-27T23:00:00Z,26.6493,-81.8810,2.11,27.85,2 
SCCF RECON,ioos:station:SCCF:53:1,2008-05-28T00:00:00Z,26.6493,-81.8810,2.11,27.99,2 
SCCF RECON,ioos:station:SCCF:53:1,2008-05-28T01:00:00Z,26.6493,-81.8810,2.11,27.96,2 
SCCF RECON,ioos:station:SCCF:53:1,2008-05-28T02:00:00Z,26.6493,-81.8810,2.11,27.81,2 
SCCF RECON,ioos:station:SCCF:53:1,2008-05-28T03:00:00Z,26.6493,-81.8810,2.11,27.64,2 
SCCF RECON,ioos:station:SCCF:53:1,2008-05-28T04:00:00Z,26.6493,-81.8810,2.11,27.52,2 
SCCF RECON,ioos:station:SCCF:53:1,2008-05-28T05:00:00Z,26.6493,-81.8810,2.11,27.59,2 
SCCF RECON,ioos:station:SCCF:53:1,2008-05-28T06:00:00Z,26.6493,-81.8810,2.11,27.34,2 
SCCF RECON,ioos:station:SCCF:53:1,2008-05-28T07:00:00Z,26.6493,-81.8810,2.11,27.04,2 
SCCF RECON,ioos:station:SCCF:53:1,2008-05-28T08:00:00Z,26.6493,-81.8810,2.11,27.05,2 
SCCF RECON,ioos:station:SCCF:53:1,2008-05-28T09:00:00Z,26.6493,-81.8810,2.11,26.99,2 
SCCF RECON,ioos:station:SCCF:53:1,2008-05-28T10:00:00Z,26.6493,-81.8810,2.11,27.06,2 
SCCF RECON,ioos:station:SCCF:53:1,2008-05-28T11:00:00Z,26.6493,-81.8810,2.11,26.92,2 
SCCF RECON,ioos:station:SCCF:53:1,2008-05-28T12:00:00Z,26.6493,-81.8810,2.11,26.95,2 
SCCF RECON,ioos:station:SCCF:53:1,2008-05-28T13:00:00Z,26.6493,-81.8810,2.11,26.86,2 
SCCF RECON,ioos:station:SCCF:53:1,2008-05-28T14:00:00Z,26.6493,-81.8810,2.11,26.81,2 
SCCF RECON,ioos:station:SCCF:53:1,2008-05-28T15:00:00Z,26.6493,-81.8810,2.11,26.84,2 
SCCF RECON,ioos:station:SCCF:53:1,2008-05-28T16:00:00Z,26.6493,-81.8810,2.11,26.97,2 
SCCF RECON,ioos:station:SCCF:53:1,2008-05-28T17:00:00Z,26.6493,-81.8810,2.11,27.02,2 
SCCF RECON,ioos:station:SCCF:53:1,2008-05-28T18:00:00Z,26.6493,-81.8810,2.11,27.06,2 
SCCF RECON,ioos:station:SCCF:53:1,2008-05-28T19:00:00Z,26.6493,-81.8810,2.11,27.11,2 
SCCF RECON,ioos:station:SCCF:53:1,2008-05-28T20:00:00Z,26.6493,-81.8810,2.11,27.14,2 
SCCF RECON,ioos:station:SCCF:53:1,2008-05-28T21:00:00Z,26.6493,-81.8810,2.11,27.36,2 
SCCF RECON,ioos:station:SCCF:53:1,2008-05-28T22:00:00Z,26.6493,-81.8810,2.11,27.43,2 
SCCF RECON,ioos:station:SCCF:53:1,2008-05-28T23:00:00Z,26.6493,-81.8810,2.11,27.62,2 
SCCF RECON,ioos:station:SCCF:53:1,2008-05-29T00:00:00Z,26.6493,-81.8810,2.11,27.71,2 
SCCF RECON,ioos:station:SCCF:53:1,2008-05-29T01:00:00Z,26.6493,-81.8810,2.11,27.71,2 
SCCF RECON,ioos:station:SCCF:53:1,2008-05-29T02:00:00Z,26.6493,-81.8810,2.11,27.77,2 
SCCF RECON,ioos:station:SCCF:53:1,2008-05-29T03:00:00Z,26.6493,-81.8810,2.11,27.61,2 
SCCF RECON,ioos:station:SCCF:53:1,2008-05-29T04:00:00Z,26.6493,-81.8810,2.11,27.5,2 
SCCF RECON,ioos:station:SCCF:53:1,2008-05-29T05:00:00Z,26.6493,-81.8810,2.11,27.64,2 